Weather History for KFOK - March, 2014

Change the Weather History Date:

Saturday, March 8, 2014

  Actual Average Record
Temperature  
Mean Temperature 42 °F -  
Max Temperature 57 °F 41 °F 61 °F (2009)
Min Temperature 26 °F 25 °F 0 °F (2007)
Degree Days  
Heating Degree Days 24    
Moisture  
Dew Point 24 °F    
Average Humidity 54    
Maximum Humidity 81    
Minimum Humidity 29    
Precipitation  
Precipitation 0.00 in - - ()
Sea Level Pressure  
Sea Level Pressure 29.84 in    
Wind  
Wind Speed 8 mph (NNW)    
Max Wind Speed 17 mph    
Max Gust Speed 26 mph    
Visibility 10 miles    
Events      
Averages and records for this station are not official NWS values.
T = Trace of Precipitation, MM = Missing Value Source: NWS Daily Summary

Daily Weather History Graph

Daily Weather History Graph

Search for Another Location

Airport or City:

Trip Planner

Search our weather history database for the weather conditions in past years. The results will help you decide how hot, cold, wet, or windy it might be!

Date:

Astronomy

Mar. 08, 2014 Rise Set
Actual Time 6:13 AM EST 5:49 PM EST
Civil Twilight 5:46 AM EST 6:16 PM EST
Nautical Twilight 5:14 AM EST 6:48 PM EST
Astronomical Twilight 4:42 AM EST 7:20 PM EST
Moon 10:49 AM EST (3/8) 12:47 AM EST (3/8)
Length of Visible Light 12h 30m
Length of Day
11h 35m
First Quarter, 51% of the Moon is Illuminated
Mar 8
First Quarter
Mar 16
Full
Mar 23
Last Quarter
Mar 30
New
Apr 7
First Quarter

Hourly Weather History & Observations

Time (EST) Temp. Windchill Dew Point Humidity Pressure Visibility Wind Dir Wind Speed Gust Speed Precip Events Conditions
12:53 AM 34.0 °F 26.6 °F 24.1 °F 67% 29.88 in 10.0 mi North 9.2 mph - N/A   Clear
1:53 AM 32.0 °F 23.6 °F 23.0 °F 69% 29.86 in 10.0 mi North 10.4 mph - N/A   Clear
2:53 AM 30.9 °F 22.8 °F 21.9 °F 69% 29.84 in 10.0 mi North 9.2 mph - N/A   Clear
3:53 AM 30.0 °F 23.2 °F 21.9 °F 72% 29.83 in 10.0 mi North 6.9 mph - N/A   Clear
4:53 AM 28.9 °F 22.8 °F 21.0 °F 72% 29.83 in 10.0 mi North 5.8 mph - N/A   Clear
5:53 AM 27.0 °F 20.5 °F 19.0 °F 72% 29.84 in 10.0 mi NNW 5.8 mph - N/A   Clear
6:53 AM 26.1 °F 21.9 °F 21.0 °F 81% 29.86 in 10.0 mi NW 3.5 mph - N/A   Clear
7:53 AM 36.0 °F 29.6 °F 24.1 °F 62% 29.87 in 10.0 mi NNW 8.1 mph - N/A   Clear
8:53 AM 42.1 °F 35.7 °F 27.0 °F 55% 29.87 in 10.0 mi NNW 11.5 mph - N/A   Clear
9:53 AM 46.9 °F - 28.0 °F 48% 29.85 in 10.0 mi North 9.2 mph - N/A   Clear
10:53 AM 52.0 °F - 25.0 °F 35% 29.83 in 10.0 mi Variable 5.8 mph - N/A   Clear
11:53 AM 54.0 °F - 21.9 °F 29% 29.81 in 10.0 mi NW 6.9 mph - N/A   Clear
12:53 PM 52.0 °F - 30.0 °F 43% 29.78 in 10.0 mi SW 5.8 mph - N/A   Clear
1:53 PM 57.0 °F - 27.0 °F 32% 29.76 in 10.0 mi North 9.2 mph - N/A   Clear
2:53 PM 55.9 °F - 28.9 °F 36% 29.76 in 10.0 mi SW 9.2 mph - N/A   Scattered Clouds
3:53 PM 55.9 °F - 25.0 °F 30% 29.77 in 10.0 mi WNW 17.3 mph 26.5 mph N/A   Clear
4:53 PM 54.0 °F - 26.1 °F 34% 29.78 in 10.0 mi NW 12.7 mph 21.9 mph N/A   Clear
5:53 PM 46.9 °F - 25.0 °F 42% 29.81 in 10.0 mi NW 5.8 mph - N/A   Clear
6:53 PM 37.9 °F - 23.0 °F 55% 29.84 in 10.0 mi Calm Calm - N/A   Clear
7:53 PM 32.0 °F 28.7 °F 19.9 °F 61% 29.85 in 10.0 mi NNW 3.5 mph - N/A   Clear
8:53 PM 32.0 °F 27.5 °F 19.9 °F 61% 29.87 in 10.0 mi North 4.6 mph - N/A   Clear
9:53 PM 37.0 °F 31.0 °F 25.0 °F 62% 29.88 in 10.0 mi North 8.1 mph - N/A   Scattered Clouds
10:53 PM 41.0 °F 35.8 °F 26.1 °F 55% 29.90 in 9.0 mi NNW 8.1 mph - N/A   Overcast
11:53 PM 41.0 °F 35.8 °F 26.1 °F 55% 29.89 in 9.0 mi North 8.1 mph - N/A   Overcast